Current weather by "City, St" or "zip code"  
 
Advertise Here

Current Conditions: Joseph State Airport AWOS, OR

Mostly Cloudy


11.0 F

Last Updated on Feb 28 2021, 3:55 am PST
Humidity: 83%
Wind Speed: S 4.6 mph
Barometer 30.20 in
Dewpoint: 6.6 F
Visibility: 10.00 mi
Precip: --
Heat Index: NA
Wind Chill: 3 F
Current conditions at:

Joseph State Airport AWOS, OR (KJSY)

Lat: 45.355889 Lon: 117.254083

Local Radar Image active severe weather and emergency alerts image image weather storm and storm spotter reports image weather observation monitoring service image
Local
Radar
Active
Alerts
Storm Reports Obs
Monitoring

Sign-up For Email & Text Message Weather Alert Notification Services


Advertise Here

Observation History for Joseph State Airport AWOS, OR


Time Wind
(mph)
Vis
(mi)
Weather Precip (in) Temperature (F) Relative
Humidity
Wind
Chill
(F)
Heat
Index
(F)
Pressure
Air Dwpt altimeter
(in)
sea level
(mb)
Rmks
3:55 am PST S 4.6 10.00 Mostly Cloudy -- 11.0 6.6 83% 3 NA 30.20 M
2:55 am PST S 3.5 10.00 Fair -- 9.0 5.2 84% NA NA 30.20 M
1:55 am PST N 0.0 10.00 Fair -- 10.0 5.4 82% NA NA 30.20 M
12:55 am PST N 0.0 10.00 Fair -- 7.0 3.6 85% NA NA 30.20 M
11:55 pm PST N 0.0 10.00 Fair -- 11.0 6.1 81% NA NA 30.19 M
10:55 pm PST S 4.6 10.00 Fair -- 9.0 4.5 81% 1 NA 30.20 M
9:55 pm PST N 0.0 10.00 Fair -- 11.0 6.6 82% NA NA 30.19 M
8:55 pm PST S 5.8 10.00 Fair -- 12.0 8.1 83% 3 NA 30.19 M
7:55 pm PST N 0.0 10.00 Fair -- 14.0 9.1 80% NA NA 30.18 M
6:55 pm PST S 8.1 10.00 Fair -- 13.0 8.8 81% 2 NA 30.16 M
5:55 pm PST N 0.0 10.00 Mostly Cloudy -- 16.0 11.3 80% NA NA 30.16 M
4:55 pm PST N 0.0 10.00 Mostly Cloudy -- 23.0 10.4 58% NA NA 30.15 M
3:55 pm PST N 0.0 10.00 Mostly Cloudy -- 28.0 12.7 53% NA NA 30.13 M
2:55 pm PST N 10.4 10.00 Fair -- 28.0 12.2 51% 19 NA 30.12 M
1:55 pm PST N 8.1 G 16.1 10.00 Partly Cloudy -- 30.0 13.8 51% 22 NA 30.11 M
12:55 pm PST N 10.4 G 17.3 10.00 Partly Cloudy -- 31.0 14.0 50% 22 NA 30.09 M
11:55 am PST N 9.2 G 19.6 10.00 Partly Cloudy -- 30.0 14.5 52% 22 NA 30.08 M
10:55 am PST N 9.2 10.00 Mostly Cloudy -- 29.0 17.2 62% 20 NA 30.05 M
9:55 am PST NW 6.9 10.00 Overcast -- 28.0 16.0 60% 21 NA 30.03 M
8:55 am PST N 9.2 10.00 Unknown Precip -- 26.0 21.2 82% 17 NA 29.99 M
7:55 am PST NW 6.9 10.00 Overcast -- 26.0 16.7 67% 18 NA 29.95 M
6:55 am PST N 0.0 10.00 Mostly Cloudy 00.01 21.0 18.5 91% NA NA 29.90 M
5:55 am PST N 0.0 2.00 Light Snow -- 22.0 19.4 88% NA NA 29.87 M
4:55 am PST N 0.0 10.00 Mostly Cloudy -- 21.0 18.9 90% NA NA 29.86 M

Regional Weather Observation


La Grande/Union County Airport, OR (KLGD)

Overcast
29.0 F

Meacham, OR (KMEH)

Overcast
25.0 F

Grangeville - Idaho County Airport, ID (KGIC)

Overcast
28.0 F

Baker Municipal Airport, OR (KBKE)

Fair
17.0 F

Eastern Oregon Regional Airport at Pendleton, OR (KPDT)

Overcast
37.0 F

Lewiston, Lewiston-Nez Perce County Airport, ID (KLWS)

Overcast
34.0 F
Advertise Here

Advertise Here